sat.trackr.live / text

‹ back to catalog

STARLINK-5038

NORAD 56472 · 2023-064AA

PAYLOAD ACTIVE UNKNOWN

§ Identity

Operator
Country
US
Launch date
2023-05-10
Launch site
AFWTR
Launch vehicle
Mass (kg)
RCS (m²)

Purposes: comms

External: N2YO · Heavens-Above · Gunter

§ Orbital elements

Epoch: 2026-05-24T19:59:29.409792Z

Period
96.11 min
Inclination
70.0000°
Eccentricity
0.0002720
Mean motion
14.98326263 rev/d
Perigee alt
570.2 km
Apogee alt
574.0 km
Semi-major
6,950.2 km
B*
2.5001e-5
RAAN
292.5177°
Arg perigee
271.7721°
Mean anomaly
88.3126°
Rev number
16,714

§ Raw data

STARLINK-50381 56472U 23064AA  26144.83297928  .00000205  00000+0  25001-4 0  99922 56472  70.0000 292.5177 0002720 271.7721  88.3126 14.98326263167145

JSON: /api/v1/satellites/56472 · /tle

For live sub-satellite position, see the globe view (requires WebGL).

§ Visibility from observer

Set your observer location to see the next 7 days of passes ≥ 10°. The values pass through the URL so the page stays shareable.

No JS? Fill the form by hand. The geolocation button needs JavaScript.